CAPE
nan nan nan nan nan nan nan nan nan nan nan nan 0 0 1 2 0 0 1 nan nan nan nan nan nan nan nan nan nan nan nan nan nan nan nan nan nan nan nan nan nan nan nan nan nan nan nan nan nan nan nan nan nan nan nan nan nan nan nan nan nan 0 0 0 0 1 1 1 2 2 1 1 0 0 0 0 1 1 2 4 4 7 11 16 16 26
nan nan nan nan nan nan nan nan nan nan nan 0 1 1 1 0 0 0 nan nan nan nan nan nan nan nan nan nan nan nan nan nan nan nan nan nan nan nan nan nan nan nan nan nan nan nan nan nan nan nan nan nan nan nan nan nan nan nan nan nan nan 0 0 1 1 1 1 1 1 1 1 0 0 0 1 2 3 3 5 8 8 12 18 25 25 33
nan nan nan nan nan nan 0 0 0 0 0 0 1 1 0 0 0 0 0 nan nan nan nan nan nan nan nan nan nan nan nan nan nan nan nan nan nan nan nan nan nan nan nan nan nan nan nan nan nan nan nan nan nan nan nan nan nan nan nan nan nan nan 0 0 0 0 1 1 1 1 0 0 1 1 2 4 7 7 9 13 13 18 23 31 31 38
nan nan nan nan nan nan 0 1 0 0 0 0 0 0 nan 0 0 0 0 nan nan nan nan nan nan nan nan nan nan nan nan nan nan nan nan nan nan nan nan nan nan nan nan nan nan nan nan nan nan nan nan nan nan nan nan nan nan nan nan nan nan nan nan nan nan 0 0 0 0 0 0 1 2 2 3 7 9 9 13 17 17 22 28 37 37 41
nan nan nan nan nan nan nan nan nan nan 0 nan nan nan nan nan 0 0 1 0 0 nan nan nan nan nan nan nan nan nan nan nan nan nan nan nan nan nan nan nan nan nan nan nan nan nan nan nan nan nan nan nan nan nan nan nan nan nan nan nan nan nan nan nan nan nan nan nan nan nan 0 1 2 2 5 10 12 12 17 21 21 26 33 39 39 44
nan nan nan nan nan nan nan nan nan nan nan 0 nan nan 0 0 0 0 1 nan nan nan nan nan nan nan nan nan nan nan nan nan nan nan nan nan nan nan nan nan nan nan nan nan nan nan nan nan nan nan nan nan nan nan nan nan nan nan nan nan nan nan nan nan nan nan nan nan 0 0 1 2 4 4 7 12 16 16 21 24 24 28 33 39 39 45
nan nan nan nan nan nan nan nan nan nan nan 0 nan nan nan 0 0 0 0 nan nan nan nan nan nan nan nan nan nan nan nan nan nan nan nan nan nan nan nan nan nan nan nan nan nan nan nan nan nan nan nan nan nan nan nan nan nan nan nan nan nan nan nan nan nan nan nan nan 0 0 2 4 8 8 9 13 18 18 24 27 27 30 31 36 36 42
nan nan nan nan nan nan nan nan nan nan nan nan nan nan 0 nan nan nan nan nan nan nan nan nan nan nan nan nan nan nan nan nan nan nan nan nan nan nan nan nan nan nan nan nan nan nan nan nan nan nan nan nan nan nan nan nan nan nan nan nan nan nan nan nan nan nan 0 2 4 4 7 8 10 10 13 14 17 17 22 25 25 26 27 29 29 33
nan nan nan nan nan nan nan nan nan nan nan nan nan nan nan nan nan nan nan nan nan nan nan nan nan nan nan nan nan nan nan nan nan nan nan nan nan nan nan nan nan nan nan nan nan nan nan nan nan nan nan nan nan nan nan nan nan nan nan nan nan nan nan nan nan 0 1 4 6 6 9 10 11 11 13 14 15 15 17 19 19 24 28 29 29 32
nan nan nan nan nan nan nan nan nan nan nan nan nan nan nan nan nan nan nan nan nan nan nan nan nan nan nan nan nan nan nan nan nan nan nan nan nan nan nan nan nan nan nan nan nan nan nan nan nan nan nan nan nan nan nan nan nan nan nan nan nan nan nan nan nan 1 3 6 7 7 9 9 11 11 11 13 14 14 14 16 16 19 24 28 28 32
nan nan nan nan nan nan nan nan nan nan nan nan nan nan nan nan nan nan nan nan nan nan nan nan nan nan nan nan nan nan nan nan nan nan nan nan nan nan nan nan nan nan nan nan nan nan nan nan nan nan nan nan nan nan nan nan nan nan nan nan nan nan nan 0 0 2 4 7 9 9 8 9 10 10 11 12 13 13 13 15 15 15 18 22 22 29
nan nan nan nan nan nan nan nan nan nan nan nan nan nan nan nan nan nan nan nan nan nan nan nan nan nan nan nan nan nan nan nan nan nan nan nan nan nan nan nan nan nan nan nan nan nan nan nan nan nan nan nan nan nan nan nan nan nan nan nan nan nan 0 1 1 3 5 8 8 8 8 9 9 9 11 12 13 13 14 14 14 14 16 19 19 25
nan nan nan nan nan nan nan nan nan nan nan nan nan nan nan nan nan nan nan nan nan nan nan nan nan nan nan nan nan nan nan nan nan nan nan nan nan nan nan nan nan nan nan nan nan nan nan nan nan nan nan nan nan nan nan nan nan nan nan nan nan nan 0 2 2 4 6 7 7 7 8 9 10 10 11 13 14 14 15 15 15 16 16 19 19 24
nan nan nan nan nan 0 nan nan nan nan nan nan nan nan nan nan nan nan nan nan nan nan nan nan nan nan nan nan nan nan nan nan nan nan nan nan nan nan nan nan nan nan nan nan nan nan nan nan nan nan nan nan nan nan nan nan nan nan nan nan nan nan 0 2 2 3 5 6 7 7 7 9 10 10 12 13 14 14 14 15 15 17 18 19 19 23
nan nan nan nan nan nan 0 nan nan nan nan nan nan nan nan nan nan nan nan nan nan nan nan nan nan nan nan nan nan nan nan nan nan nan nan nan nan nan nan nan nan nan nan nan nan nan nan nan nan nan nan nan nan nan nan nan nan nan nan nan nan nan 0 1 1 3 4 5 6 6 6 8 10 10 11 13 15 15 14 16 16 17 19 20 20 22
nan nan nan nan nan nan nan nan nan nan nan nan nan nan nan nan nan nan nan nan nan nan nan nan nan nan nan nan nan nan nan nan nan nan nan nan nan nan nan nan nan nan nan nan nan nan nan nan nan nan nan nan nan nan nan nan nan nan nan nan nan nan 0 1 1 3 4 5 6 6 7 8 10 10 12 12 13 13 15 16 16 16 17 19 19 20
nan nan nan nan nan nan nan nan nan nan nan nan nan nan nan nan nan nan nan nan nan nan nan nan nan nan nan nan nan nan nan nan nan nan nan nan nan nan nan nan nan nan nan nan nan nan nan nan nan nan nan nan nan nan nan nan nan nan nan nan nan nan 0 1 1 2 3 5 5 5 7 9 10 10 11 12 12 12 13 15 15 16 17 18 18 19
nan nan nan nan nan nan nan nan nan nan nan nan nan nan nan nan nan nan nan nan nan nan nan nan nan nan nan nan nan nan nan nan nan nan nan nan nan nan nan nan nan nan nan nan nan nan nan nan nan nan nan nan nan nan nan nan nan nan nan nan nan nan nan 1 1 2 3 4 6 6 7 8 9 9 10 10 11 11 12 13 13 15 16 18 18 19
nan nan nan nan nan nan nan nan nan nan nan nan nan nan nan nan nan nan nan nan nan nan nan nan nan nan nan nan nan nan nan nan nan nan nan nan nan nan nan nan nan nan nan nan nan nan nan nan nan nan nan nan nan nan nan nan nan nan nan nan nan nan 0 1 1 2 3 5 6 6 7 8 7 7 8 9 10 10 11 13 13 15 16 17 17 17
nan nan nan nan nan nan nan nan nan nan nan nan nan nan nan nan nan nan nan nan nan nan nan nan nan nan nan nan nan nan nan nan nan nan nan nan nan nan nan nan nan nan nan nan nan nan nan nan nan nan nan nan nan nan nan nan nan nan nan nan nan nan 0 1 1 2 3 5 6 6 7 7 7 7 7 7 8 8 10 10 10 12 13 14 14 14
nan nan nan nan nan nan nan nan nan nan nan nan nan nan nan nan nan nan nan nan nan nan nan nan nan nan nan nan nan nan nan nan nan nan nan nan nan nan nan nan nan nan nan nan nan nan nan nan nan nan nan nan nan nan nan nan nan nan nan nan nan 0 0 1 1 2 3 5 6 6 7 6 6 6 6 7 8 8 9 11 11 11 12 12 12 13
nan nan nan nan nan nan nan nan nan nan nan nan nan nan nan nan nan nan nan nan nan nan nan nan nan nan nan nan nan nan nan nan nan nan nan nan nan nan nan nan nan nan nan nan nan nan nan nan nan nan nan nan nan nan nan nan nan nan nan nan nan 0 1 1 1 3 3 5 5 5 5 5 5 5 6 7 8 8 9 9 9 11 10 11 11 12
nan nan nan nan nan nan nan nan nan nan nan nan nan nan nan nan nan nan nan nan nan nan nan nan nan nan nan nan nan nan nan nan nan nan nan nan nan nan nan nan nan nan nan nan nan nan nan nan nan nan nan nan nan nan nan nan nan nan nan nan nan 0 0 2 2 2 4 4 4 4 4 4 4 4 5 7 8 8 9 10 10 10 10 10 10 10
nan nan nan nan nan nan nan nan nan nan nan nan nan nan nan nan nan nan nan nan nan nan nan nan nan nan nan nan nan nan nan nan nan nan nan nan nan nan nan nan nan nan nan nan nan nan nan nan nan nan nan nan nan nan nan nan nan nan nan nan nan 0 1 1 1 2 2 3 3 3 3 3 4 4 5 6 7 7 9 9 9 10 10 10 10 10
nan nan nan nan nan nan nan nan nan nan nan nan nan nan nan nan nan nan nan nan nan nan nan nan nan nan nan nan nan nan nan nan nan nan nan nan nan nan nan nan nan nan nan nan nan nan nan nan nan nan nan nan nan nan nan nan nan nan nan nan nan 0 0 1 1 1 1 2 2 2 2 3 3 3 4 5 7 7 8 9 9 10 10 10 10 9
nan nan nan nan nan nan nan nan nan nan nan nan nan nan nan nan nan nan nan nan nan nan nan nan nan nan nan nan nan nan nan nan nan nan nan nan nan nan nan nan nan nan nan nan nan nan nan nan nan nan nan nan nan nan nan nan nan nan nan nan nan nan 0 0 0 1 1 2 2 2 2 2 3 3 5 6 7 7 7 8 8 9 10 9 9 8
nan nan nan nan nan nan nan nan nan nan nan nan nan nan nan nan nan nan nan nan nan nan nan nan nan nan nan nan nan nan nan nan nan nan nan nan nan nan nan nan nan nan nan nan nan nan nan nan nan nan nan nan nan nan nan nan nan nan nan nan nan nan nan 0 0 0 1 1 2 2 2 2 3 3 5 6 7 7 8 9 9 9 9 9 9 6
1 1 1 1 1 0 0 nan nan nan nan nan nan nan nan nan nan nan nan nan nan nan nan nan nan nan nan nan nan nan nan nan nan nan nan nan nan nan nan nan nan nan nan nan nan nan nan nan nan nan nan nan nan nan nan nan nan nan nan nan nan nan nan nan nan 0 0 1 1 1 1 2 3 3 5 6 7 7 8 9 9 10 9 1 1 nan
3 2 3 3 3 2 1 0 nan nan nan nan nan nan nan nan nan nan nan nan nan nan nan nan nan nan nan nan nan nan nan nan nan nan nan nan nan nan nan nan nan nan nan nan nan nan nan nan nan nan nan nan nan nan nan nan nan nan nan nan nan nan nan nan nan nan 0 0 1 1 1 2 3 3 5 5 7 7 8 9 9 10 6 nan nan nan
nan 2 3 4 4 2 0 nan nan nan nan nan nan nan nan nan nan nan nan nan nan nan nan nan nan nan nan nan nan nan nan nan nan nan nan nan nan nan nan nan nan nan nan nan nan nan nan nan nan nan nan nan nan nan nan nan nan nan nan nan nan nan nan nan nan nan nan nan 0 0 1 1 3 3 4 5 6 6 8 8 8 5 nan nan nan nan
nan nan nan nan nan nan nan nan nan nan nan nan nan nan nan nan nan nan nan nan nan nan nan nan nan nan nan nan nan nan nan nan nan nan nan nan nan nan nan nan nan nan nan nan nan nan nan nan nan nan nan nan nan nan nan nan nan nan nan nan nan nan nan nan nan nan nan nan nan nan 0 1 1 1 3 4 6 6 7 9 9 3 nan nan nan nan
nan nan nan nan nan nan nan nan nan nan nan nan nan nan nan nan nan nan nan nan nan nan nan nan nan nan nan nan nan nan nan nan nan nan nan nan nan nan nan nan nan nan nan nan nan nan nan nan nan nan nan nan nan nan nan nan nan nan nan nan nan nan nan nan nan nan nan nan nan nan nan nan 0 0 1 3 5 5 6 8 8 8 nan nan nan nan
nan nan nan nan nan nan nan nan nan nan nan nan nan nan nan nan nan nan nan nan nan nan nan nan nan nan nan nan nan nan nan nan nan nan nan nan nan nan nan nan nan nan nan nan nan nan nan nan nan nan nan nan nan nan nan nan nan nan nan nan nan nan nan nan nan nan nan nan nan nan nan nan nan nan 0 2 4 4 6 7 7 8 3 nan nan nan
nan nan nan nan nan nan nan nan nan nan nan nan nan nan nan nan nan nan nan nan nan nan nan nan nan nan nan nan nan nan nan nan nan nan nan nan nan nan nan nan nan nan nan nan nan nan nan nan nan nan nan nan nan nan nan nan nan nan nan nan nan nan nan nan nan nan nan nan nan nan nan nan nan nan nan 0 3 3 6 6 6 6 5 nan nan nan
nan nan nan nan nan nan nan nan nan nan nan nan nan nan nan nan nan nan nan nan nan nan nan nan nan nan nan nan nan nan nan nan nan nan nan nan nan nan nan nan nan nan nan nan nan nan nan nan nan nan nan nan nan nan nan nan nan nan nan nan nan nan nan nan nan nan nan nan nan nan nan nan nan nan nan nan 2 2 4 4 4 3 3 4 4 0
nan nan nan nan nan nan nan nan nan nan nan nan nan nan nan nan nan nan nan nan nan nan nan nan nan nan nan nan nan nan nan nan nan nan nan nan nan nan nan nan nan nan nan nan nan nan nan nan nan nan nan nan nan nan nan nan nan nan nan nan nan nan nan nan nan nan nan nan nan nan nan nan nan nan nan nan 1 1 1 0 0 1 1 2 2 2
nan nan nan nan nan nan nan nan nan nan nan nan nan nan nan nan nan nan nan nan nan nan nan nan nan nan nan nan nan nan nan nan nan nan nan nan nan nan nan nan nan nan nan nan nan nan nan nan nan nan nan nan nan nan nan nan nan nan nan nan nan nan nan nan nan nan nan nan nan nan nan nan nan nan nan nan nan nan nan nan nan nan 0 1 1 2
nan nan nan nan nan nan nan nan nan nan nan nan nan nan nan nan nan nan nan nan nan nan nan nan nan nan nan nan nan nan nan nan nan nan nan nan nan nan nan nan nan nan nan nan nan nan nan nan nan nan nan nan nan nan nan nan nan nan nan nan nan nan nan nan nan nan nan nan nan nan nan nan nan nan nan nan nan nan nan nan nan nan nan nan nan 1
nan nan nan nan nan nan nan nan nan nan nan nan nan nan nan nan nan nan nan nan nan nan nan nan nan nan nan nan nan nan nan nan nan nan nan nan nan nan nan nan nan nan nan nan nan nan nan nan nan nan nan nan nan nan nan nan nan nan nan nan nan nan nan nan nan nan nan nan nan nan nan nan nan nan nan nan nan nan nan nan nan nan nan nan nan nan
nan nan nan nan nan nan nan nan nan nan nan nan nan nan nan nan nan nan nan nan nan nan nan nan nan nan nan nan nan nan nan nan nan nan nan nan nan nan nan nan nan nan nan nan nan nan nan nan nan nan nan nan nan nan nan nan nan nan 0 nan nan nan nan nan nan nan nan nan nan nan nan nan nan nan nan nan nan nan nan nan nan nan nan nan nan nan
nan nan nan nan nan nan nan nan nan nan nan nan nan nan nan nan nan nan nan nan nan nan nan nan nan nan nan nan nan nan nan nan nan nan nan nan nan nan nan nan nan nan nan nan nan nan nan nan nan nan nan nan 0 0 0 nan nan 1 2 nan nan nan nan nan nan nan nan nan nan nan nan nan nan nan nan nan nan nan nan nan nan nan nan nan nan nan
nan nan nan nan nan nan nan nan nan nan nan nan nan nan nan nan nan nan nan nan nan nan nan nan nan nan nan nan nan nan nan nan nan nan nan nan nan nan nan nan nan nan nan nan nan nan 0 0 0 0 1 1 0 0 nan nan nan 0 1 nan nan nan nan nan nan nan nan nan nan nan nan nan nan nan nan nan nan nan nan nan nan nan nan nan nan nan
nan nan nan nan nan nan nan nan nan nan nan nan nan nan nan nan nan nan nan nan nan nan nan nan nan nan nan nan nan nan nan nan nan nan nan nan nan nan nan nan nan nan nan nan nan nan 0 3 3 2 1 1 nan nan nan 0 0 nan nan nan nan nan nan nan nan nan nan nan nan nan nan nan nan nan nan nan nan nan nan nan nan nan nan nan nan nan
nan nan nan nan nan nan nan nan nan nan nan nan nan nan nan nan nan nan nan nan nan nan nan nan nan nan nan nan nan nan nan nan nan nan nan nan nan nan nan nan nan nan nan nan nan nan 0 1 1 0 nan 0 0 0 0 0 0 nan nan nan nan nan nan nan nan nan nan nan nan nan nan nan nan nan nan nan nan nan nan nan nan nan nan nan nan nan
nan nan nan nan nan nan nan nan nan nan nan nan nan nan nan nan nan nan nan nan nan nan nan nan nan nan nan nan nan nan nan nan nan nan nan nan nan nan nan nan nan nan nan nan nan nan 0 nan nan nan nan 0 1 1 0 0 0 0 0 nan nan nan nan nan nan nan nan nan nan nan nan nan nan nan nan nan nan nan nan nan nan nan nan nan nan nan
nan nan nan nan nan nan nan nan nan nan nan nan nan nan nan nan nan nan nan nan nan nan nan nan nan nan nan nan nan nan nan nan nan nan nan nan nan nan nan nan nan nan nan nan nan nan nan nan nan nan 0 0 0 0 nan nan nan nan nan nan nan nan nan nan nan nan nan nan nan nan nan nan nan nan nan nan nan nan nan nan nan nan nan nan nan nan
nan nan nan nan nan nan nan nan nan nan nan nan nan nan nan nan nan nan nan nan nan nan nan nan nan nan nan nan nan nan nan nan nan nan nan nan nan nan nan nan nan nan nan nan nan nan nan nan nan nan nan 0 nan nan nan nan nan nan nan nan nan nan nan nan nan nan nan nan nan nan nan nan nan nan nan nan nan nan nan nan nan nan nan nan nan nan
nan nan nan nan nan nan nan nan nan nan nan nan nan nan nan nan nan nan nan nan nan nan nan nan nan nan nan nan nan nan nan nan nan nan nan nan nan nan nan nan nan nan nan nan nan nan nan nan nan nan nan nan nan nan nan nan nan nan nan nan nan nan nan nan nan nan nan nan nan nan nan nan nan nan nan nan nan nan nan nan nan nan nan nan nan nan
nan nan nan nan nan nan nan nan nan nan nan nan nan nan nan nan nan nan nan nan nan nan nan nan nan nan nan nan nan nan nan nan nan nan nan nan nan nan nan nan nan nan nan nan nan nan nan nan nan nan nan nan nan nan nan nan nan nan nan nan nan nan nan nan nan nan nan nan nan nan nan 0 nan nan nan nan nan nan nan nan nan nan nan nan nan nan
nan nan nan nan nan nan nan nan nan nan nan nan nan nan nan nan nan nan nan nan nan nan nan nan nan nan nan nan nan nan nan nan nan nan nan nan nan nan nan nan nan nan nan nan nan nan nan nan nan nan nan nan nan nan nan nan nan nan nan nan nan nan nan nan nan nan nan nan nan nan nan nan nan nan nan nan nan nan nan nan nan nan nan nan nan nan
nan nan nan nan nan nan nan nan nan nan nan nan nan nan nan nan nan nan nan nan nan nan nan nan nan nan nan nan nan nan nan nan nan nan nan nan nan nan nan nan nan nan nan nan nan nan nan nan nan nan nan 1 nan nan nan nan nan nan nan nan nan nan nan nan nan nan nan nan nan nan nan nan nan nan nan nan nan nan nan nan nan nan nan nan nan nan
CIN
nan nan nan nan nan nan nan nan nan nan nan nan -0 -0 -0 -0 -0 -0 -0 nan nan nan nan nan nan nan nan nan nan nan nan nan nan nan nan nan nan nan nan nan nan nan nan nan nan nan nan nan nan nan nan nan nan nan nan nan nan nan nan nan nan -0 -0 -0 -0 -0 -0 -0 -0 -0 -0 -0 -0 -0 -0 -0 -0 -0 -0 -0 -0 -0 -0 -0 -0 -0
nan nan nan nan nan nan nan nan nan nan nan -0 -0 -0 -0 -0 -0 -0 nan nan nan nan nan nan nan nan nan nan nan nan nan nan nan nan nan nan nan nan nan nan nan nan nan nan nan nan nan nan nan nan nan nan nan nan nan nan nan nan nan nan nan -0 -0 -0 -0 -0 -0 -0 -0 -0 -0 -0 -0 -0 -0 -0 -0 -0 -0 -0 -0 -0 -0 -0 -0 -0
nan nan nan nan nan nan -0 -0 -0 -0 -0 -0 -0 -0 -0 -0 -0 -0 -0 nan nan nan nan nan nan nan nan nan nan nan nan nan nan nan nan nan nan nan nan nan nan nan nan nan nan nan nan nan nan nan nan nan nan nan nan nan nan nan nan nan nan nan -0 -0 -0 -0 -0 -0 -0 -0 -0 -0 -0 -0 -0 -0 -0 -0 -0 -0 -0 -0 -0 -0 -0 -0
nan nan nan nan nan nan -0 -0 -0 -0 -0 -0 -0 -0 nan -0 -0 -0 -0 nan nan nan nan nan nan nan nan nan nan nan nan nan nan nan nan nan nan nan nan nan nan nan nan nan nan nan nan nan nan nan nan nan nan nan nan nan nan nan nan nan nan nan nan nan nan -0 -0 -0 -0 -0 -0 -0 -0 -0 -0 -0 -0 -0 -0 -0 -0 -0 -0 -0 -0 -0
nan nan nan nan nan nan nan nan nan nan -0 nan nan nan nan nan -0 -0 -0 -0 -0 nan nan nan nan nan nan nan nan nan nan nan nan nan nan nan nan nan nan nan nan nan nan nan nan nan nan nan nan nan nan nan nan nan nan nan nan nan nan nan nan nan nan nan nan nan nan nan nan nan -0 -0 -0 -0 -0 -0 -0 -0 -0 -0 -0 -0 -0 -0 -0 -0
nan nan nan nan nan nan nan nan nan nan nan -0 nan nan -0 -0 -0 -0 -0 nan nan nan nan nan nan nan nan nan nan nan nan nan nan nan nan nan nan nan nan nan nan nan nan nan nan nan nan nan nan nan nan nan nan nan nan nan nan nan nan nan nan nan nan nan nan nan nan nan -0 -0 -0 -0 -0 -0 -0 -0 -0 -0 -0 -0 -0 -0 -0 -0 -0 -0
nan nan nan nan nan nan nan nan nan nan nan -0 nan nan nan -0 -0 -0 -0 nan nan nan nan nan nan nan nan nan nan nan nan nan nan nan nan nan nan nan nan nan nan nan nan nan nan nan nan nan nan nan nan nan nan nan nan nan nan nan nan nan nan nan nan nan nan nan nan nan -0 -0 -0 -0 -0 -0 -0 -0 -0 -0 -0 -0 -0 -0 -0 -0 -0 -0
nan nan nan nan nan nan nan nan nan nan nan nan nan nan -0 nan nan nan nan nan nan nan nan nan nan nan nan nan nan nan nan nan nan nan nan nan nan nan nan nan nan nan nan nan nan nan nan nan nan nan nan nan nan nan nan nan nan nan nan nan nan nan nan nan nan nan -0 -0 -0 -0 -0 -0 -0 -0 -0 -0 -0 -0 -0 -0 -0 -0 -0 -0 -0 -0
nan nan nan nan nan nan nan nan nan nan nan nan nan nan nan nan nan nan nan nan nan nan nan nan nan nan nan nan nan nan nan nan nan nan nan nan nan nan nan nan nan nan nan nan nan nan nan nan nan nan nan nan nan nan nan nan nan nan nan nan nan nan nan nan nan -0 -0 -0 -0 -0 -0 -0 -0 -0 -0 -0 -0 -0 -0 -0 -0 -0 -0 -0 -0 -0
nan nan nan nan nan nan nan nan nan nan nan nan nan nan nan nan nan nan nan nan nan nan nan nan nan nan nan nan nan nan nan nan nan nan nan nan nan nan nan nan nan nan nan nan nan nan nan nan nan nan nan nan nan nan nan nan nan nan nan nan nan nan nan nan nan -0 -0 -0 -0 -0 -0 -0 -0 -0 -0 -0 -0 -0 -0 -0 -0 -0 -0 -0 -0 -0
nan nan nan nan nan nan nan nan nan nan nan nan nan nan nan nan nan nan nan nan nan nan nan nan nan nan nan nan nan nan nan nan nan nan nan nan nan nan nan nan nan nan nan nan nan nan nan nan nan nan nan nan nan nan nan nan nan nan nan nan nan nan nan -0 -0 -0 -0 -0 -0 -0 -0 -0 -0 -0 -0 -0 -0 -0 -0 -0 -0 -0 -0 -0 -0 -0
nan nan nan nan nan nan nan nan nan nan nan nan nan nan nan nan nan nan nan nan nan nan nan nan nan nan nan nan nan nan nan nan nan nan nan nan nan nan nan nan nan nan nan nan nan nan nan nan nan nan nan nan nan nan nan nan nan nan nan nan nan nan -0 -0 -0 -0 -0 -0 -0 -0 -0 -0 -0 -0 -0 -0 -0 -0 -0 -0 -0 -0 -0 -0 -0 -0
nan nan nan nan nan nan nan nan nan nan nan nan nan nan nan nan nan nan nan nan nan nan nan nan nan nan nan nan nan nan nan nan nan nan nan nan nan nan nan nan nan nan nan nan nan nan nan nan nan nan nan nan nan nan nan nan nan nan nan nan nan nan -0 -0 -0 -0 -0 -0 -0 -0 -0 -0 -0 -0 -0 -0 -0 -0 -0 -0 -0 -0 -0 -0 -0 -0
nan nan nan nan nan -0 nan nan nan nan nan nan nan nan nan nan nan nan nan nan nan nan nan nan nan nan nan nan nan nan nan nan nan nan nan nan nan nan nan nan nan nan nan nan nan nan nan nan nan nan nan nan nan nan nan nan nan nan nan nan nan nan -0 -0 -0 -0 -0 -0 -0 -0 -0 -0 -0 -0 -0 -0 -0 -0 -0 -0 -0 -0 -0 -0 -0 -0
nan nan nan nan nan nan -1 nan nan nan nan nan nan nan nan nan nan nan nan nan nan nan nan nan nan nan nan nan nan nan nan nan nan nan nan nan nan nan nan nan nan nan nan nan nan nan nan nan nan nan nan nan nan nan nan nan nan nan nan nan nan nan -0 -0 -0 -0 -0 -0 -0 -0 -0 -0 -0 -0 -0 -0 -0 -0 -0 -0 -0 -0 -0 -0 -0 -0
nan nan nan nan nan nan nan nan nan nan nan nan nan nan nan nan nan nan nan nan nan nan nan nan nan nan nan nan nan nan nan nan nan nan nan nan nan nan nan nan nan nan nan nan nan nan nan nan nan nan nan nan nan nan nan nan nan nan nan nan nan nan -0 -0 -0 -0 -0 -0 -0 -0 -0 -0 -0 -0 -0 -0 -0 -0 -0 -0 -0 -0 -0 -0 -0 -0
nan nan nan nan nan nan nan nan nan nan nan nan nan nan nan nan nan nan nan nan nan nan nan nan nan nan nan nan nan nan nan nan nan nan nan nan nan nan nan nan nan nan nan nan nan nan nan nan nan nan nan nan nan nan nan nan nan nan nan nan nan nan -0 -0 -0 -0 -0 -0 -0 -0 -0 -0 -0 -0 -0 -0 -0 -0 -0 -0 -0 -0 -0 -0 -0 -0
nan nan nan nan nan nan nan nan nan nan nan nan nan nan nan nan nan nan nan nan nan nan nan nan nan nan nan nan nan nan nan nan nan nan nan nan nan nan nan nan nan nan nan nan nan nan nan nan nan nan nan nan nan nan nan nan nan nan nan nan nan nan nan -0 -0 -0 -0 -0 -0 -0 -0 -0 -0 -0 -0 -0 -0 -0 -0 -0 -0 -0 -0 -0 -0 -0
nan nan nan nan nan nan nan nan nan nan nan nan nan nan nan nan nan nan nan nan nan nan nan nan nan nan nan nan nan nan nan nan nan nan nan nan nan nan nan nan nan nan nan nan nan nan nan nan nan nan nan nan nan nan nan nan nan nan nan nan nan nan -0 -0 -0 -0 -0 -0 -0 -0 -0 -0 -0 -0 -0 -0 -0 -0 -0 -0 -0 -0 -0 -0 -0 -0
nan nan nan nan nan nan nan nan nan nan nan nan nan nan nan nan nan nan nan nan nan nan nan nan nan nan nan nan nan nan nan nan nan nan nan nan nan nan nan nan nan nan nan nan nan nan nan nan nan nan nan nan nan nan nan nan nan nan nan nan nan nan -0 -0 -0 -0 -0 -0 -0 -0 -0 -0 -0 -0 -0 -0 -0 -0 -0 -0 -0 -0 -0 -0 -0 -0
nan nan nan nan nan nan nan nan nan nan nan nan nan nan nan nan nan nan nan nan nan nan nan nan nan nan nan nan nan nan nan nan nan nan nan nan nan nan nan nan nan nan nan nan nan nan nan nan nan nan nan nan nan nan nan nan nan nan nan nan nan -0 -0 -0 -0 -0 -0 -0 -0 -0 -0 -0 -0 -0 -0 -0 -0 -0 -0 -0 -0 -0 -0 -0 -0 -0
nan nan nan nan nan nan nan nan nan nan nan nan nan nan nan nan nan nan nan nan nan nan nan nan nan nan nan nan nan nan nan nan nan nan nan nan nan nan nan nan nan nan nan nan nan nan nan nan nan nan nan nan nan nan nan nan nan nan nan nan nan -0 -0 -0 -0 -0 -0 -0 -0 -0 -0 -0 -0 -0 -0 -0 -0 -0 -0 -0 -0 -0 -0 -0 -0 -0
nan nan nan nan nan nan nan nan nan nan nan nan nan nan nan nan nan nan nan nan nan nan nan nan nan nan nan nan nan nan nan nan nan nan nan nan nan nan nan nan nan nan nan nan nan nan nan nan nan nan nan nan nan nan nan nan nan nan nan nan nan -0 -0 -0 -0 -0 -0 -0 -0 -0 -0 -0 -0 -0 -0 -0 -0 -0 -0 -0 -0 -0 -0 -0 -0 -0
nan nan nan nan nan nan nan nan nan nan nan nan nan nan nan nan nan nan nan nan nan nan nan nan nan nan nan nan nan nan nan nan nan nan nan nan nan nan nan nan nan nan nan nan nan nan nan nan nan nan nan nan nan nan nan nan nan nan nan nan nan -0 -0 -0 -0 -0 -0 -0 -0 -0 -0 -0 -0 -0 -0 -0 -0 -0 -0 -0 -0 -0 -0 -0 -0 -0
nan nan nan nan nan nan nan nan nan nan nan nan nan nan nan nan nan nan nan nan nan nan nan nan nan nan nan nan nan nan nan nan nan nan nan nan nan nan nan nan nan nan nan nan nan nan nan nan nan nan nan nan nan nan nan nan nan nan nan nan nan -0 -0 -0 -0 -0 -0 -0 -0 -0 -0 -0 -0 -0 -0 -0 -0 -0 -0 -0 -0 -0 -0 -0 -0 -0
nan nan nan nan nan nan nan nan nan nan nan nan nan nan nan nan nan nan nan nan nan nan nan nan nan nan nan nan nan nan nan nan nan nan nan nan nan nan nan nan nan nan nan nan nan nan nan nan nan nan nan nan nan nan nan nan nan nan nan nan nan nan -0 -0 -0 -0 -0 -0 -0 -0 -0 -0 -0 -0 -0 -0 -0 -0 -0 -0 -0 -0 -0 -0 -0 -0
nan nan nan nan nan nan nan nan nan nan nan nan nan nan nan nan nan nan nan nan nan nan nan nan nan nan nan nan nan nan nan nan nan nan nan nan nan nan nan nan nan nan nan nan nan nan nan nan nan nan nan nan nan nan nan nan nan nan nan nan nan nan nan -0 -0 -0 -0 -0 -0 -0 -0 -0 -0 -0 -0 -0 -0 -0 -0 -0 -0 -0 -0 -0 -0 -0
-0 -0 -0 -0 -0 -0 -0 nan nan nan nan nan nan nan nan nan nan nan nan nan nan nan nan nan nan nan nan nan nan nan nan nan nan nan nan nan nan nan nan nan nan nan nan nan nan nan nan nan nan nan nan nan nan nan nan nan nan nan nan nan nan nan nan nan nan -0 -0 -0 -0 -0 -0 -0 -0 -0 -0 -0 -0 -0 -0 -0 -0 -0 -0 -9 -9 nan
-0 -0 -0 -0 -0 -0 -0 -0 nan nan nan nan nan nan nan nan nan nan nan nan nan nan nan nan nan nan nan nan nan nan nan nan nan nan nan nan nan nan nan nan nan nan nan nan nan nan nan nan nan nan nan nan nan nan nan nan nan nan nan nan nan nan nan nan nan nan -0 -0 -0 -0 -0 -0 -0 -0 -0 -0 -0 -0 -0 -0 -0 -0 -3 nan nan nan
nan -0 -0 -0 -0 -0 -0 nan nan nan nan nan nan nan nan nan nan nan nan nan nan nan nan nan nan nan nan nan nan nan nan nan nan nan nan nan nan nan nan nan nan nan nan nan nan nan nan nan nan nan nan nan nan nan nan nan nan nan nan nan nan nan nan nan nan nan nan nan -0 -0 -0 -0 -0 -0 -0 -0 -0 -0 -0 -0 -0 -3 nan nan nan nan
nan nan nan nan nan nan nan nan nan nan nan nan nan nan nan nan nan nan nan nan nan nan nan nan nan nan nan nan nan nan nan nan nan nan nan nan nan nan nan nan nan nan nan nan nan nan nan nan nan nan nan nan nan nan nan nan nan nan nan nan nan nan nan nan nan nan nan nan nan nan -0 -0 -0 -0 -0 -0 -0 -0 -0 -0 -0 -9 nan nan nan nan
nan nan nan nan nan nan nan nan nan nan nan nan nan nan nan nan nan nan nan nan nan nan nan nan nan nan nan nan nan nan nan nan nan nan nan nan nan nan nan nan nan nan nan nan nan nan nan nan nan nan nan nan nan nan nan nan nan nan nan nan nan nan nan nan nan nan nan nan nan nan nan nan -0 -0 -0 -0 -0 -0 -0 -0 -0 -0 nan nan nan nan
nan nan nan nan nan nan nan nan nan nan nan nan nan nan nan nan nan nan nan nan nan nan nan nan nan nan nan nan nan nan nan nan nan nan nan nan nan nan nan nan nan nan nan nan nan nan nan nan nan nan nan nan nan nan nan nan nan nan nan nan nan nan nan nan nan nan nan nan nan nan nan nan nan nan -0 -0 -0 -0 -0 -0 -0 -0 -6 nan nan nan
nan nan nan nan nan nan nan nan nan nan nan nan nan nan nan nan nan nan nan nan nan nan nan nan nan nan nan nan nan nan nan nan nan nan nan nan nan nan nan nan nan nan nan nan nan nan nan nan nan nan nan nan nan nan nan nan nan nan nan nan nan nan nan nan nan nan nan nan nan nan nan nan nan nan nan -3 -0 -0 -0 -0 -0 -0 -0 nan nan nan
nan nan nan nan nan nan nan nan nan nan nan nan nan nan nan nan nan nan nan nan nan nan nan nan nan nan nan nan nan nan nan nan nan nan nan nan nan nan nan nan nan nan nan nan nan nan nan nan nan nan nan nan nan nan nan nan nan nan nan nan nan nan nan nan nan nan nan nan nan nan nan nan nan nan nan nan -1 -1 -0 -0 -0 -0 -0 -0 -0 -6
nan nan nan nan nan nan nan nan nan nan nan nan nan nan nan nan nan nan nan nan nan nan nan nan nan nan nan nan nan nan nan nan nan nan nan nan nan nan nan nan nan nan nan nan nan nan nan nan nan nan nan nan nan nan nan nan nan nan nan nan nan nan nan nan nan nan nan nan nan nan nan nan nan nan nan nan -0 -0 -1 -0 -0 -0 -0 -0 -0 -0
nan nan nan nan nan nan nan nan nan nan nan nan nan nan nan nan nan nan nan nan nan nan nan nan nan nan nan nan nan nan nan nan nan nan nan nan nan nan nan nan nan nan nan nan nan nan nan nan nan nan nan nan nan nan nan nan nan nan nan nan nan nan nan nan nan nan nan nan nan nan nan nan nan nan nan nan nan nan nan nan nan nan -0 -0 -0 -0
nan nan nan nan nan nan nan nan nan nan nan nan nan nan nan nan nan nan nan nan nan nan nan nan nan nan nan nan nan nan nan nan nan nan nan nan nan nan nan nan nan nan nan nan nan nan nan nan nan nan nan nan nan nan nan nan nan nan nan nan nan nan nan nan nan nan nan nan nan nan nan nan nan nan nan nan nan nan nan nan nan nan nan nan nan -0
nan nan nan nan nan nan nan nan nan nan nan nan nan nan nan nan nan nan nan nan nan nan nan nan nan nan nan nan nan nan nan nan nan nan nan nan nan nan nan nan nan nan nan nan nan nan nan nan nan nan nan nan nan nan nan nan nan nan nan nan nan nan nan nan nan nan nan nan nan nan nan nan nan nan nan nan nan nan nan nan nan nan nan nan nan nan
nan nan nan nan nan nan nan nan nan nan nan nan nan nan nan nan nan nan nan nan nan nan nan nan nan nan nan nan nan nan nan nan nan nan nan nan nan nan nan nan nan nan nan nan nan nan nan nan nan nan nan nan nan nan nan nan nan nan -5 nan nan nan nan nan nan nan nan nan nan nan nan nan nan nan nan nan nan nan nan nan nan nan nan nan nan nan
nan nan nan nan nan nan nan nan nan nan nan nan nan nan nan nan nan nan nan nan nan nan nan nan nan nan nan nan nan nan nan nan nan nan nan nan nan nan nan nan nan nan nan nan nan nan nan nan nan nan nan nan -4 -4 -5 nan nan -1 -0 nan nan nan nan nan nan nan nan nan nan nan nan nan nan nan nan nan nan nan nan nan nan nan nan nan nan nan
nan nan nan nan nan nan nan nan nan nan nan nan nan nan nan nan nan nan nan nan nan nan nan nan nan nan nan nan nan nan nan nan nan nan nan nan nan nan nan nan nan nan nan nan nan nan -9 -5 -5 -4 -5 -7 -5 -5 nan nan nan -4 -3 nan nan nan nan nan nan nan nan nan nan nan nan nan nan nan nan nan nan nan nan nan nan nan nan nan nan nan
nan nan nan nan nan nan nan nan nan nan nan nan nan nan nan nan nan nan nan nan nan nan nan nan nan nan nan nan nan nan nan nan nan nan nan nan nan nan nan nan nan nan nan nan nan nan -7 -3 -3 -5 -8 -9 nan nan nan -5 -5 nan nan nan nan nan nan nan nan nan nan nan nan nan nan nan nan nan nan nan nan nan nan nan nan nan nan nan nan nan
nan nan nan nan nan nan nan nan nan nan nan nan nan nan nan nan nan nan nan nan nan nan nan nan nan nan nan nan nan nan nan nan nan nan nan nan nan nan nan nan nan nan nan nan nan nan -7 -6 -6 -10 nan -13 -7 -7 -5 -6 -6 nan nan nan nan nan nan nan nan nan nan nan nan nan nan nan nan nan nan nan nan nan nan nan nan nan nan nan nan nan
nan nan nan nan nan nan nan nan nan nan nan nan nan nan nan nan nan nan nan nan nan nan nan nan nan nan nan nan nan nan nan nan nan nan nan nan nan nan nan nan nan nan nan nan nan nan -10 nan nan nan nan -12 -7 -7 -4 -5 -5 -5 -5 nan nan nan nan nan nan nan nan nan nan nan nan nan nan nan nan nan nan nan nan nan nan nan nan nan nan nan
nan nan nan nan nan nan nan nan nan nan nan nan nan nan nan nan nan nan nan nan nan nan nan nan nan nan nan nan nan nan nan nan nan nan nan nan nan nan nan nan nan nan nan nan nan nan nan nan nan nan -9 -7 -7 -7 nan nan nan nan nan nan nan nan nan nan nan nan nan nan nan nan nan nan nan nan nan nan nan nan nan nan nan nan nan nan nan nan
nan nan nan nan nan nan nan nan nan nan nan nan nan nan nan nan nan nan nan nan nan nan nan nan nan nan nan nan nan nan nan nan nan nan nan nan nan nan nan nan nan nan nan nan nan nan nan nan nan nan nan -4 nan nan nan nan nan nan nan nan nan nan nan nan nan nan nan nan nan nan nan nan nan nan nan nan nan nan nan nan nan nan nan nan nan nan
nan nan nan nan nan nan nan nan nan nan nan nan nan nan nan nan nan nan nan nan nan nan nan nan nan nan nan nan nan nan nan nan nan nan nan nan nan nan nan nan nan nan nan nan nan nan nan nan nan nan nan nan nan nan nan nan nan nan nan nan nan nan nan nan nan nan nan nan nan nan nan nan nan nan nan nan nan nan nan nan nan nan nan nan nan nan
nan nan nan nan nan nan nan nan nan nan nan nan nan nan nan nan nan nan nan nan nan nan nan nan nan nan nan nan nan nan nan nan nan nan nan nan nan nan nan nan nan nan nan nan nan nan nan nan nan nan nan nan nan nan nan nan nan nan nan nan nan nan nan nan nan nan nan nan nan nan nan -17 nan nan nan nan nan nan nan nan nan nan nan nan nan nan
nan nan nan nan nan nan nan nan nan nan nan nan nan nan nan nan nan nan nan nan nan nan nan nan nan nan nan nan nan nan nan nan nan nan nan nan nan nan nan nan nan nan nan nan nan nan nan nan nan nan nan nan nan nan nan nan nan nan nan nan nan nan nan nan nan nan nan nan nan nan nan nan nan nan nan nan nan nan nan nan nan nan nan nan nan nan
nan nan nan nan nan nan nan nan nan nan nan nan nan nan nan nan nan nan nan nan nan nan nan nan nan nan nan nan nan nan nan nan nan nan nan nan nan nan nan nan nan nan nan nan nan nan nan nan nan nan nan -0 nan nan nan nan nan nan nan nan nan nan nan nan nan nan nan nan nan nan nan nan nan nan nan nan nan nan nan nan nan nan nan nan nan nan
Wind_Speed
3 4 4 5 5 4 4 5 6 6 6 6 5 5 5 5 5 5 6 5 4 3 3 3 3 3 3 4 5 5 5 4 3 3 2 2 2 2 2 2 2 2 2 2 2 2 2 2 3 3 4 5 6 7 7 8 8 8 9 9 10 10 10 11 11 12 12 12 12 13 13 13 13 13 14 14 14 15 15 15 15 16 16 16 17 17
3 4 3 4 5 4 4 4 5 6 6 6 5 5 4 4 4 3 4 4 3 3 2 2 2 2 2 3 3 4 3 3 3 2 2 1 1 1 2 2 2 2 2 3 2 2 2 3 3 4 5 5 6 7 7 8 8 8 9 9 9 10 10 11 11 12 12 12 12 12 13 13 13 13 14 14 14 15 15 15 15 16 16 16 17 17
3 3 3 3 4 4 4 4 5 6 6 6 5 5 5 4 4 3 3 2 2 2 2 1 1 2 2 2 2 3 3 3 2 2 1 1 2 2 2 2 3 3 3 3 3 3 3 3 4 4 5 6 6 7 7 8 8 8 8 9 9 9 10 10 11 11 12 12 12 12 12 13 13 13 14 14 14 15 15 15 15 16 16 16 17 17
3 3 3 2 2 3 3 4 5 5 6 6 6 6 5 4 3 3 2 2 2 1 1 1 1 1 1 1 2 3 3 3 2 2 2 2 2 3 3 3 3 3 3 3 3 3 3 4 4 5 6 6 6 7 7 7 7 8 8 8 9 9 9 10 10 11 11 12 12 12 12 13 13 13 14 14 14 15 15 15 15 16 16 16 17 17
3 3 3 2 2 3 4 5 5 5 6 6 5 5 4 3 3 2 2 2 2 2 1 1 1 1 1 1 2 3 3 3 2 2 3 3 3 3 3 3 3 3 3 3 3 3 4 4 5 5 6 6 6 7 7 7 7 7 8 8 8 9 9 10 10 11 11 11 12 12 12 13 13 13 14 14 14 15 15 15 15 16 16 16 16 17
2 2 2 2 2 3 3 4 4 5 5 5 4 4 3 3 2 2 2 2 2 2 2 2 2 2 2 2 2 3 3 3 3 3 3 3 3 4 4 3 3 3 3 3 4 4 4 5 5 6 6 6 6 6 6 6 7 7 7 8 8 9 9 10 10 11 11 11 12 12 12 13 13 13 13 14 14 14 15 15 15 15 16 16 16 17
3 2 2 2 2 3 3 3 3 4 4 3 3 3 2 2 2 2 2 1 1 1 1 1 1 1 1 2 3 3 3 3 4 4 4 4 4 4 4 4 4 4 4 4 4 5 5 5 5 5 5 6 6 6 6 6 6 7 7 7 8 8 9 10 10 10 11 11 12 12 12 12 13 13 13 13 14 14 14 15 15 15 15 16 16 16
4 3 3 3 3 2 2 2 2 3 3 3 3 3 2 2 1 1 1 1 1 1 1 1 1 1 1 2 3 3 3 3 3 3 3 3 3 3 3 3 4 4 4 4 5 5 5 5 5 5 5 5 5 5 5 6 6 6 7 7 8 8 9 9 10 10 11 11 11 12 12 12 13 13 13 13 13 14 14 15 15 15 16 16 16 17
5 4 3 3 3 3 3 2 2 2 2 3 3 3 3 2 2 2 1 1 1 1 1 1 1 1 2 2 3 3 3 3 2 2 2 1 1 2 2 3 3 4 4 4 5 5 5 5 5 5 5 5 5 5 5 5 6 6 6 7 8 8 9 9 10 10 10 11 11 12 12 12 12 13 13 13 13 13 14 14 15 15 16 16 16 17
4 4 3 3 2 3 3 2 2 2 2 2 2 2 3 3 3 3 2 1 1 1 1 2 2 2 2 2 2 2 2 2 2 2 2 2 2 2 3 3 3 3 4 4 5 5 5 5 5 5 5 5 5 5 5 5 5 6 6 7 7 8 9 9 10 10 11 11 11 12 12 12 12 12 13 13 13 13 14 14 15 15 15 16 16 17
4 4 3 3 2 2 2 2 2 2 2 1 1 1 1 2 3 4 4 3 2 2 2 2 2 2 2 1 1 1 1 0 1 2 3 3 3 4 4 4 4 4 4 4 4 5 5 5 5 5 5 4 4 4 5 5 5 5 6 7 7 8 9 9 10 10 11 11 11 12 12 12 12 13 13 13 13 13 14 14 15 15 15 16 16 17
4 3 3 3 3 2 2 2 2 1 1 1 1 1 1 1 2 3 4 4 3 3 2 2 1 1 2 1 1 1 1 1 1 2 2 2 3 3 3 3 3 3 3 3 3 4 5 5 5 4 4 4 4 4 4 4 5 5 6 7 8 8 9 10 10 11 11 11 12 12 12 12 13 13 13 13 14 14 14 15 15 15 16 16 17 17
4 3 3 3 3 3 2 2 2 2 2 2 2 3 2 2 1 2 3 3 3 3 3 2 1 1 1 1 1 1 1 1 1 1 1 2 2 1 1 1 1 1 1 1 2 3 4 4 4 4 3 3 3 4 4 4 5 5 6 7 8 9 9 10 10 11 11 12 12 12 12 13 13 13 13 14 14 14 15 15 15 16 16 17 17 17
4 4 3 3 3 3 3 3 3 3 3 3 3 2 2 2 2 2 2 3 3 3 2 2 2 1 1 2 1 1 1 0 1 1 2 2 2 1 1 1 1 1 1 0 1 2 2 2 2 2 2 2 3 3 3 4 5 6 7 8 8 9 9 10 10 11 11 12 12 12 12 13 13 13 14 14 14 15 15 15 16 16 16 17 17 18
5 5 5 4 4 3 3 3 3 3 3 2 2 2 2 2 2 2 2 3 3 2 2 2 2 2 1 1 1 1 1 0 0 1 2 2 2 1 2 2 1 1 1 0 1 2 2 0 0 0 1 1 1 2 2 3 5 7 7 8 9 9 10 10 10 11 11 11 12 12 13 13 13 14 14 14 15 15 15 15 16 16 16 17 17 17
5 5 5 4 4 4 4 4 3 3 2 2 2 3 3 3 3 2 3 3 3 3 3 3 2 1 1 1 1 0 1 1 1 1 1 2 2 1 2 2 1 1 1 0 1 1 1 0 0 1 1 2 3 4 4 5 6 7 8 9 9 9 10 10 10 11 11 12 12 12 13 13 13 14 14 14 15 15 15 16 16 16 16 17 17 17
3 3 4 4 4 4 3 3 3 3 3 3 3 3 3 3 3 3 3 3 3 2 2 2 2 2 0 1 2 1 1 1 1 1 1 2 2 1 1 2 2 1 0 0 1 1 1 1 0 1 1 3 4 5 6 6 7 8 9 9 9 9 10 10 10 11 11 12 12 12 13 13 13 14 14 14 15 15 15 16 16 16 16 17 17 17
3 3 3 3 3 3 3 3 3 3 3 3 3 3 2 2 2 2 2 2 2 2 2 2 2 2 2 1 1 2 2 2 1 1 0 1 2 2 0 2 2 1 0 1 1 1 1 1 1 2 2 4 6 6 7 8 8 9 9 9 9 10 10 10 11 11 12 12 12 13 13 13 14 14 14 14 15 15 15 15 16 16 16 17 17 17
3 3 3 3 3 3 3 3 3 3 3 3 3 3 3 2 2 2 2 2 2 2 2 2 2 2 2 2 1 2 1 2 2 1 0 1 2 2 1 2 2 1 0 1 1 2 1 1 2 3 4 5 7 7 8 8 9 9 9 9 10 10 10 11 11 11 12 12 13 13 13 13 13 14 14 14 14 15 15 15 16 16 16 16 17 17
3 3 3 3 4 4 3 3 3 4 4 4 4 3 3 3 2 2 2 1 1 2 2 2 2 1 2 2 1 1 1 1 2 2 1 1 2 2 1 2 2 1 1 1 2 2 1 1 1 2 4 6 7 8 9 9 9 9 9 10 10 10 10 11 11 12 12 13 13 13 13 13 13 13 14 14 14 14 15 15 15 16 16 16 16 17
4 3 2 3 3 3 3 3 3 4 4 4 4 3 3 3 3 2 2 2 2 1 1 1 1 1 2 2 2 1 1 1 2 2 1 1 2 2 1 1 2 1 1 2 2 2 1 1 1 2 3 6 7 8 9 9 9 9 9 10 10 10 11 11 12 12 13 13 13 13 13 13 13 13 13 14 14 14 15 15 15 15 16 16 16 16
4 3 3 3 3 3 3 3 3 4 5 5 4 4 3 3 3 3 3 2 2 2 2 2 2 2 2 2 2 1 1 2 2 2 1 1 2 2 2 1 2 1 1 2 2 2 1 1 1 2 4 7 9 9 9 9 9 9 9 10 10 10 11 12 12 13 13 13 13 13 13 13 13 13 14 14 14 14 15 15 15 15 15 16 16 16
4 4 4 4 4 4 4 4 4 4 4 4 3 3 3 3 3 3 3 2 2 3 2 2 2 2 2 2 1 1 1 2 2 2 2 1 1 2 2 1 1 1 1 2 2 2 2 2 2 3 5 8 10 10 10 10 9 9 9 9 10 11 11 12 12 13 13 13 13 13 13 13 13 14 14 14 14 14 15 15 15 15 15 15 16 16
6 5 5 5 5 5 4 4 4 4 4 3 2 2 2 2 2 3 2 2 3 3 2 2 2 2 2 2 2 2 1 1 2 2 3 1 0 2 2 1 1 1 2 2 2 2 2 2 2 3 4 7 9 10 10 9 9 8 8 9 10 11 12 13 13 13 13 13 13 13 13 13 13 14 14 14 15 15 15 15 15 15 15 15 16 16
6 5 5 5 6 6 6 5 5 5 4 3 3 3 3 3 4 3 3 3 3 3 3 3 3 2 1 1 1 1 1 1 1 2 2 1 0 2 2 1 1 1 2 2 2 2 3 3 3 3 3 6 8 9 9 8 8 8 9 10 11 12 12 13 13 13 12 12 12 13 13 13 14 14 14 15 15 15 15 15 15 15 15 15 15 15
8 8 8 9 10 11 10 10 9 8 7 5 3 3 3 3 4 3 3 3 2 3 3 3 2 1 0 1 1 0 1 1 1 2 2 2 0 1 2 1 1 1 2 3 3 3 3 3 3 3 3 4 6 7 7 7 7 9 10 11 12 12 13 12 12 12 12 12 12 13 13 14 14 14 15 15 15 15 15 15 15 15 15 15 14 14
14 14 15 15 14 14 13 12 12 11 10 8 6 4 3 3 3 3 2 2 2 2 3 3 2 1 1 1 1 0 0 0 1 1 2 2 1 1 2 1 1 2 3 3 3 3 4 3 3 3 2 2 3 4 5 7 8 10 11 12 12 12 12 12 12 12 12 12 13 13 14 14 14 14 14 14 14 14 14 14 15 14 14 13 12 10
15 15 15 15 14 14 13 12 12 11 9 8 7 6 3 3 3 3 2 2 2 2 3 2 2 2 1 1 0 0 0 1 1 1 2 2 1 1 2 1 1 2 2 3 3 3 4 3 3 2 2 2 1 2 5 7 9 10 11 12 12 12 12 12 12 12 12 13 13 14 14 14 14 14 14 14 14 14 14 14 14 14 12 10 7 5
14 14 14 14 14 13 12 11 10 10 9 8 6 5 3 2 2 3 3 2 2 3 2 2 2 2 1 1 0 1 1 1 0 1 2 3 1 1 2 1 1 2 2 2 2 3 3 2 2 1 1 1 1 2 4 6 7 8 9 11 11 11 11 11 12 12 13 13 14 14 14 14 14 14 14 14 14 14 14 14 14 12 8 6 5 4
9 10 10 11 11 10 9 8 8 8 8 7 7 6 4 3 2 2 2 2 3 3 2 2 2 2 2 2 2 1 1 1 1 1 3 2 1 1 1 1 1 1 1 2 2 2 3 2 2 1 1 2 3 3 3 4 4 5 5 7 8 8 10 11 12 12 13 14 14 14 14 14 14 14 14 14 14 14 14 14 13 9 5 4 4 4
5 6 6 6 6 6 5 5 5 5 6 6 6 5 4 3 3 2 2 2 3 3 3 2 2 2 2 2 1 1 1 2 2 1 3 2 1 1 0 1 1 1 1 1 1 1 2 3 3 2 2 3 3 3 3 3 3 3 3 3 4 5 8 10 11 12 12 13 13 14 14 14 14 14 14 14 14 14 14 14 12 9 5 4 4 4
4 4 4 3 3 3 3 3 3 3 3 4 4 4 4 4 3 3 3 2 2 2 3 2 2 2 2 2 2 1 1 2 2 2 3 2 1 1 1 0 1 1 1 1 2 1 1 2 3 2 2 2 3 3 3 4 3 2 2 2 2 3 7 8 9 10 10 11 12 13 14 14 14 14 14 14 14 14 14 14 13 10 6 4 4 5
4 3 3 3 3 2 2 2 2 2 2 2 2 2 3 3 3 3 3 2 2 2 3 3 2 2 2 2 2 1 1 2 2 2 3 3 2 1 0 1 1 1 1 1 1 1 1 1 2 3 2 2 2 2 3 3 3 2 1 1 2 3 6 6 7 7 7 8 9 10 12 13 13 13 14 14 14 14 14 14 13 11 8 5 5 5
4 3 3 2 2 2 2 2 2 2 2 1 1 1 2 2 2 2 2 2 2 2 3 3 3 2 2 2 1 0 1 2 1 1 4 3 2 1 1 1 1 1 1 1 1 0 1 2 2 3 4 3 2 2 2 2 2 2 1 2 2 3 4 5 5 5 6 6 6 6 8 9 10 11 11 12 12 13 13 13 14 13 12 8 6 6
3 3 2 2 2 2 2 2 1 1 1 1 1 1 1 1 1 1 1 1 1 1 2 2 3 3 3 2 2 1 1 2 1 2 3 3 2 1 1 1 0 0 1 1 1 1 1 2 3 4 4 4 3 2 2 2 2 2 2 2 3 3 4 4 4 4 5 5 5 5 5 5 6 7 8 9 10 12 13 13 14 14 14 12 10 8
3 2 2 2 2 2 1 1 1 1 1 1 1 1 1 1 1 1 1 1 1 1 1 1 2 3 3 3 3 2 2 2 1 2 3 3 2 2 1 0 0 0 0 1 1 1 2 3 3 4 5 4 4 3 2 1 1 2 3 3 3 4 4 4 4 4 4 4 4 5 4 4 5 5 6 8 10 11 12 12 13 13 14 14 14 12
2 2 1 1 1 2 1 1 1 1 1 1 0 0 0 1 1 1 1 1 1 1 1 1 1 1 2 3 3 3 2 1 0 1 2 2 2 2 1 1 1 0 0 1 1 2 2 3 4 4 4 3 3 3 3 3 3 3 3 3 3 4 4 4 4 4 4 5 5 5 5 5 5 5 6 8 9 9 10 11 11 12 13 14 15 15
2 2 1 1 1 1 1 1 1 1 1 1 0 0 0 0 1 1 1 1 1 1 1 1 1 1 1 2 2 2 2 1 0 0 1 1 2 1 1 1 1 1 1 1 1 2 2 3 4 4 4 3 4 4 5 5 4 4 4 4 4 3 3 3 3 4 4 5 6 6 6 6 5 4 4 5 5 5 5 5 7 9 11 12 13 14
2 1 1 1 1 1 1 1 1 1 1 1 0 0 0 0 0 0 0 1 1 2 2 2 1 1 1 2 2 2 2 2 1 1 1 1 2 1 1 1 1 1 1 1 1 2 2 3 3 4 4 5 5 5 4 4 4 4 5 5 4 3 3 3 3 4 4 5 5 6 6 5 5 4 4 3 3 3 4 4 5 7 7 7 8 11
2 1 1 1 1 1 1 1 1 1 1 1 1 1 1 1 1 1 1 0 0 1 1 1 1 1 1 1 2 3 3 3 3 2 2 2 2 2 2 2 2 1 1 1 2 2 2 3 4 4 5 5 6 6 5 4 4 5 7 6 4 4 4 4 4 4 4 4 4 4 4 4 4 4 4 4 3 3 4 4 5 6 6 5 5 6
2 2 1 1 1 1 1 1 1 0 1 1 1 1 1 1 1 1 1 1 1 1 1 1 1 1 2 1 2 2 3 4 4 4 3 3 3 3 3 3 2 2 1 2 2 3 3 4 4 5 5 5 6 7 7 6 7 8 8 6 6 6 6 6 5 4 4 3 3 4 5 5 5 5 4 4 4 3 4 4 5 5 5 4 3 4
2 2 1 1 1 1 1 1 1 1 1 1 1 1 0 0 0 1 1 1 2 1 1 2 2 2 2 3 2 2 2 3 4 5 4 5 4 4 4 3 3 2 2 2 3 3 4 4 5 5 5 5 5 6 6 6 7 7 7 6 7 7 7 6 4 3 3 3 4 4 5 5 5 5 5 5 4 4 4 5 6 7 6 5 4 3
2 1 0 0 0 1 1 1 1 1 1 1 0 0 1 1 1 1 1 1 1 1 1 2 2 2 2 2 3 3 3 2 2 3 4 5 5 5 4 4 3 3 3 3 3 4 4 5 5 5 4 4 5 6 7 7 7 6 6 6 7 6 5 4 3 3 3 4 4 4 4 4 4 4 5 5 5 5 5 5 7 8 7 6 5 4
1 0 0 1 1 1 1 1 0 0 0 0 0 1 1 0 1 1 2 1 1 1 1 2 2 2 2 2 2 3 4 3 2 1 2 4 5 5 4 4 4 4 4 3 3 3 4 4 4 4 4 4 5 6 7 7 7 6 6 6 5 5 5 5 5 5 5 5 4 4 3 4 4 5 5 5 6 5 5 5 5 5 6 5 5 5
1 0 0 1 1 1 1 0 0 0 0 0 0 0 0 0 1 2 2 1 1 1 1 2 2 2 2 1 2 2 3 3 3 2 2 2 3 5 4 4 4 4 4 4 3 3 3 4 4 5 4 4 5 6 7 7 7 7 7 6 6 6 6 5 5 5 5 5 4 4 4 4 5 5 6 6 6 6 6 6 5 5 5 5 5 5
1 0 1 1 1 0 1 1 0 0 0 0 0 0 0 1 1 2 1 1 1 1 1 2 2 2 1 1 1 2 2 2 3 3 3 2 1 1 3 3 3 3 3 3 3 3 3 4 5 5 5 6 6 6 7 7 7 7 6 6 6 5 6 5 5 4 5 5 5 4 4 5 5 6 7 8 8 7 6 6 6 6 5 5 5 5
1 1 0 1 1 1 1 1 0 1 1 0 0 0 1 1 2 2 1 1 1 1 1 2 2 1 1 1 1 1 1 2 2 2 2 2 2 2 1 1 1 2 2 3 3 4 4 4 5 5 5 6 7 7 6 6 6 6 6 6 5 5 5 4 4 4 4 4 4 4 5 5 6 6 8 8 8 8 7 6 5 5 5 5 5 5
1 1 0 0 0 1 1 1 1 1 1 1 1 1 1 2 2 2 2 1 1 1 2 1 1 0 0 1 1 1 1 1 2 2 2 2 2 2 2 2 2 2 3 4 4 5 5 5 6 6 6 6 6 7 6 5 5 5 5 5 5 5 5 4 4 4 4 4 4 5 5 6 6 7 8 8 8 8 8 7 6 5 5 5 5 5
1 1 0 0 0 0 1 1 1 2 2 2 2 2 2 2 2 2 2 1 1 1 1 1 0 0 0 1 1 1 2 2 2 2 2 2 1 1 2 2 2 3 3 3 4 4 4 5 6 6 6 6 6 6 6 5 5 4 4 4 4 4 4 4 4 4 4 5 5 6 5 5 5 6 7 8 9 9 9 8 7 5 5 4 5 5
1 0 0 0 0 1 1 1 2 2 2 2 2 2 1 2 2 2 1 1 1 1 1 1 0 0 0 1 1 1 2 2 2 2 2 1 1 2 2 2 2 3 3 3 3 3 3 3 4 5 6 6 6 5 5 4 4 3 3 3 2 3 3 4 4 5 5 6 6 6 6 5 5 5 5 7 8 9 9 8 8 6 5 4 5 5
1 1 1 0 0 0 1 1 1 0 0 0 1 1 1 1 1 1 1 1 1 0 0 0 0 1 1 2 2 2 2 2 2 2 1 1 2 2 2 2 3 3 3 3 3 3 3 3 3 4 5 6 6 4 2 2 2 3 3 3 2 3 3 4 5 5 6 7 7 6 6 6 5 5 5 6 7 8 8 9 8 8 6 5 6 6
Wind_Direction
112 119 122 126 125 121 118 119 116 112 106 99 93 89 88 85 82 80 79 80 81 83 87 89 91 95 102 113 119 124 130 136 142 150 158 163 170 180 189 200 211 220 226 230 237 246 258 274 287 295 299 301 302 302 303 305 307 309 312 313 314 314 315 315 315 315 315 316 317 317 318 318 318 317 316 315 313 312 311 310 310 310 309 308 306 305
111 113 117 123 124 124 123 116 111 108 107 105 103 102 101 99 95 89 83 82 83 86 91 98 103 107 115 129 136 142 146 151 156 164 176 189 203 214 220 225 228 231 232 235 240 247 260 273 283 290 293 296 298 299 301 304 307 309 312 313 315 315 316 315 315 315 315 316 317 317 317 317 316 315 314 313 312 311 311 311 310 310 309 307 306 306
125 123 124 125 125 124 124 116 107 100 102 105 106 108 110 107 103 99 97 92 89 88 89 96 106 118 135 154 161 163 166 170 178 191 209 226 235 240 239 238 236 235 236 238 243 251 262 273 281 286 290 292 295 298 300 303 306 309 312 314 315 315 316 316 315 315 316 316 316 316 316 315 314 313 313 313 312 312 311 311 310 310 308 307 307 307
128 128 129 118 106 101 102 105 100 94 93 98 102 106 110 109 108 107 108 109 107 106 105 113 125 140 163 182 184 183 184 188 199 216 235 245 248 248 246 243 240 239 239 241 248 256 266 275 281 285 289 292 295 298 301 304 308 311 314 315 316 316 316 316 316 316 316 316 316 315 315 314 313 313 313 313 312 311 311 310 310 308 307 307 307 308
121 119 119 108 92 84 82 91 94 97 97 100 104 107 109 111 113 115 118 121 124 129 138 151 163 173 186 197 200 200 200 205 218 233 245 250 250 249 247 244 241 241 242 247 254 261 270 276 281 286 289 293 296 299 303 307 311 314 316 317 317 317 317 317 317 316 316 315 315 314 314 314 314 314 313 312 311 310 310 309 308 307 307 307 309 310
114 103 102 98 96 94 91 96 102 107 108 108 109 110 111 113 118 122 129 132 138 144 153 166 177 185 193 203 210 213 214 219 230 240 246 247 247 245 243 241 241 242 245 251 258 265 272 277 283 287 291 294 298 302 306 311 314 317 319 320 320 319 319 318 317 317 316 315 314 314 314 314 313 312 312 310 310 309 309 308 307 307 307 308 310 311
111 96 91 89 89 92 97 105 116 122 123 121 118 114 111 112 115 120 128 135 140 146 155 174 189 198 204 215 218 218 219 226 233 239 243 241 239 238 238 238 239 242 247 253 260 266 272 278 283 288 292 296 301 305 310 314 318 321 322 322 322 321 320 318 317 316 315 314 314 314 314 313 311 310 309 309 309 309 309 308 308 308 309 310 311 312
119 111 105 103 102 101 101 108 121 131 133 133 131 128 125 122 118 115 115 122 133 145 158 179 203 216 218 218 216 214 212 219 228 236 240 239 237 236 237 237 240 245 250 256 262 268 274 279 284 289 294 298 303 308 313 317 320 322 323 323 322 320 318 316 315 314 314 313 313 312 311 309 308 307 307 309 309 309 308 308 309 310 311 311 312 312
125 124 120 121 123 124 122 123 131 141 143 141 141 141 140 139 136 131 123 136 156 171 175 186 195 203 206 205 202 199 195 198 207 222 231 233 237 240 242 246 248 252 256 262 267 272 278 282 286 290 295 299 304 309 314 318 320 321 321 320 318 317 314 313 312 311 311 310 309 307 306 306 306 307 307 308 308 308 308 309 309 310 311 311 310 310
118 121 121 121 125 127 126 131 141 154 160 153 151 151 150 148 145 142 137 147 168 187 190 189 187 183 184 187 184 180 177 190 220 243 248 254 247 240 243 243 247 254 261 266 272 277 281 284 287 290 293 298 303 308 312 315 316 316 315 314 312 311 309 308 308 307 307 305 304 303 303 304 306 307 308 307 308 308 308 308 308 308 308 308 308 308
116 117 118 118 115 109 106 117 132 148 163 152 152 164 174 160 151 146 144 148 160 179 193 191 176 162 156 158 148 125 110 64 312 298 289 277 262 250 244 238 237 244 255 266 275 282 287 289 290 291 293 296 300 303 306 308 308 307 306 305 304 304 303 303 303 303 302 302 302 302 303 305 307 307 308 308 308 308 308 308 307 306 306 306 306 306
124 124 120 119 115 109 101 102 108 122 146 149 158 182 215 194 156 140 142 147 154 165 175 175 157 132 129 130 113 80 61 34 348 320 308 289 273 258 243 234 233 238 250 272 286 294 296 296 295 293 293 293 295 295 296 296 296 296 296 297 297 298 298 299 300 300 301 301 302 304 306 307 308 309 309 309 309 309 308 307 306 306 306 306 306 306
125 125 122 121 122 125 127 127 132 145 168 179 180 180 186 183 144 119 120 135 146 153 153 141 116 78 72 81 87 83 62 24 332 303 293 281 264 243 208 192 193 208 230 291 310 308 302 301 301 299 295 292 289 287 286 285 287 289 290 291 292 294 295 297 299 300 302 303 305 306 308 309 310 310 310 309 309 308 307 307 306 306 306 306 306 305
132 133 131 131 134 140 145 150 158 169 185 192 188 175 160 145 120 103 101 118 130 135 125 120 109 84 48 41 56 81 84 42 310 291 281 271 251 217 161 140 139 142 117 59 322 300 294 306 313 311 302 295 287 282 280 281 283 284 285 287 289 291 293 296 299 302 304 305 307 308 309 310 310 310 310 309 308 308 307 306 306 306 306 306 305 304
141 142 141 143 147 150 155 162 170 178 185 181 161 131 120 124 122 117 113 124 128 123 110 108 100 83 43 10 16 59 95 110 267 279 280 278 264 223 148 129 117 98 86 73 291 285 289 310 77 241 298 266 241 238 247 264 275 279 280 283 285 289 293 297 300 303 305 306 308 309 310 311 311 310 309 308 307 307 306 305 305 305 304 304 303 303
141 143 144 146 149 153 160 166 170 171 167 150 135 131 136 144 145 141 131 135 133 128 121 119 110 89 9 322 314 320 125 146 203 252 275 283 279 258 135 120 107 64 43 26 280 278 293 310 146 165 190 222 235 243 250 258 268 274 277 280 284 288 293 297 301 303 306 307 309 310 311 311 310 309 308 307 306 306 305 305 304 303 303 302 302 302
132 136 138 140 145 150 157 158 156 151 146 139 137 141 146 151 149 141 133 134 134 135 140 139 137 135 164 291 285 266 182 163 173 223 266 281 283 278 128 120 120 117 353 293 273 269 276 265 210 189 201 231 246 256 262 266 269 273 275 279 284 288 293 297 301 304 306 307 309 310 310 309 308 307 307 306 305 305 304 304 303 303 302 302 302 301
126 131 132 135 139 144 146 142 137 136 137 137 134 132 128 127 125 123 124 129 135 141 149 149 150 152 154 191 236 241 205 160 149 158 279 285 287 289 29 112 120 130 173 280 273 267 256 229 207 204 218 251 260 265 269 269 271 273 276 280 284 289 294 297 301 303 305 307 308 308 308 307 307 306 305 305 305 304 304 303 303 302 302 302 302 302
127 128 128 133 134 134 133 135 138 142 143 143 138 131 121 119 115 114 119 129 137 143 145 148 151 150 139 154 193 216 202 145 128 115 61 302 296 303 351 79 93 97 51 281 272 265 255 239 224 227 239 263 271 274 274 273 273 275 277 282 286 290 294 298 300 303 304 305 306 306 306 305 305 305 304 304 304 303 303 302 302 302 301 301 301 301
120 117 122 129 129 127 127 132 141 147 149 144 138 134 135 137 134 132 135 136 137 135 132 132 137 136 126 136 162 196 197 122 104 93 70 320 305 311 355 63 77 66 352 291 275 265 258 248 253 260 266 275 279 280 279 277 277 278 280 283 287 291 294 297 300 302 303 303 303 303 304 304 304 304 304 303 303 302 302 301 301 301 301 301 301 301
112 111 113 121 124 126 130 133 138 141 142 136 131 132 141 144 147 151 153 142 130 118 107 113 125 135 130 139 160 188 181 106 95 88 67 1 325 321 344 53 68 57 340 293 280 274 273 267 261 266 274 284 286 285 284 282 282 282 283 286 289 292 295 297 299 301 301 301 301 302 302 302 303 303 303 302 302 301 301 301 301 301 301 301 302 303
107 104 96 99 105 113 117 117 122 126 129 132 138 146 156 156 159 160 159 144 132 124 118 124 132 135 125 131 145 159 123 106 108 108 88 41 337 318 324 31 59 55 318 285 281 284 296 291 279 280 288 293 293 291 289 286 286 285 286 288 291 294 297 298 300 300 300 300 301 301 301 301 301 301 301 301 301 300 300 300 301 301 302 302 303 304
91 91 86 84 87 92 96 93 92 94 102 114 130 147 159 158 158 158 156 142 134 131 129 126 116 100 89 98 97 84 70 92 104 105 94 78 331 303 312 15 43 33 285 272 280 293 312 303 291 288 293 296 296 293 290 288 287 287 289 291 294 297 300 300 301 301 301 301 301 301 301 301 300 300 300 299 299 299 300 300 301 301 302 304 305 306
86 89 88 88 88 90 89 85 79 73 73 80 89 104 116 121 124 127 128 122 120 117 111 94 73 57 49 64 64 54 36 59 84 93 92 94 296 290 306 1 16 338 279 269 278 297 313 303 293 287 289 292 291 289 287 287 288 290 295 298 301 302 303 303 303 303 302 302 301 301 301 300 300 299 299 298 298 298 299 300 301 302 303 304 305 307
89 93 95 99 101 102 100 97 94 91 87 85 86 89 93 94 93 91 86 87 89 91 87 81 76 70 61 82 75 46 345 19 70 92 97 99 299 293 301 336 357 312 287 283 290 303 308 299 292 287 285 284 284 284 285 289 295 302 306 307 308 307 307 306 305 305 304 303 303 302 301 301 300 299 299 298 298 298 298 299 301 302 303 305 306 307
102 106 109 111 111 111 111 109 109 108 107 104 101 99 100 97 93 86 76 77 85 92 93 91 95 108 127 101 100 93 303 9 65 93 107 108 68 300 296 317 350 331 303 297 300 302 300 293 288 284 278 277 281 286 294 305 313 317 316 313 311 310 309 308 307 306 306 305 305 304 303 302 301 300 299 299 299 299 300 301 302 303 305 306 307 308
103 106 108 110 111 112 113 113 113 113 113 115 118 120 116 107 100 98 99 112 116 110 105 107 110 113 85 81 105 148 178 55 68 92 111 108 102 297 289 308 343 343 319 304 298 293 289 282 277 273 272 274 283 301 325 329 327 323 318 314 312 311 310 309 309 309 309 308 307 306 305 304 303 302 301 301 301 301 302 303 304 305 306 307 307 307
98 101 103 105 106 107 108 109 109 110 112 115 119 122 118 111 111 120 144 153 130 107 104 115 121 123 113 119 151 157 99 83 93 111 109 102 102 268 275 302 340 347 326 306 297 291 286 276 269 266 268 275 294 328 343 336 328 320 314 311 310 310 310 312 312 312 312 311 310 308 307 306 305 304 304 304 305 305 306 306 307 307 308 308 306 301
89 92 95 96 97 97 97 97 99 100 100 101 99 95 84 101 122 139 163 148 114 97 99 108 116 121 124 116 51 23 35 34 154 139 102 93 94 266 275 316 341 343 331 315 311 310 305 288 278 273 277 304 333 346 339 329 320 312 306 305 306 308 312 314 315 315 314 313 311 310 309 308 308 307 308 308 308 309 309 310 310 309 309 307 302 296
75 77 79 81 82 82 81 81 84 88 89 85 78 67 55 74 102 122 138 113 102 100 106 104 106 106 106 81 53 26 358 305 266 168 103 95 96 275 294 334 338 337 349 350 346 337 321 309 302 304 315 346 350 343 326 315 305 299 297 300 303 308 314 317 317 316 315 313 312 311 310 309 309 310 310 310 311 311 311 312 312 312 308 304 300 298
67 67 66 66 67 66 65 65 67 72 75 73 67 60 52 60 71 81 85 87 97 106 112 110 109 109 108 99 94 87 282 272 255 204 107 109 134 238 274 349 333 329 8 48 42 359 318 308 306 314 339 352 343 327 310 301 294 292 294 301 307 313 317 318 317 315 313 312 311 310 309 309 310 310 310 311 312 312 313 314 315 314 309 307 304 301
75 74 73 69 65 65 67 67 64 61 61 59 55 51 50 54 57 61 65 76 91 102 107 109 110 112 117 125 135 156 204 245 238 201 118 116 134 192 156 81 350 331 354 82 99 104 298 299 302 311 336 338 324 309 300 295 293 295 306 318 317 315 316 316 315 312 309 309 308 308 307 307 307 308 309 310 311 312 313 315 316 316 315 312 309 306
85 80 77 75 73 73 77 76 75 72 67 60 51 46 46 47 50 54 58 67 81 94 103 106 109 111 112 122 133 156 213 244 226 176 122 114 117 132 112 76 26 346 338 52 106 139 201 266 290 303 313 310 301 293 291 291 292 298 322 331 321 311 311 312 310 306 303 303 302 302 302 303 303 303 305 307 309 311 313 315 317 319 320 317 312 309
93 91 86 82 77 75 74 74 77 81 83 79 73 65 56 49 48 50 52 59 73 91 109 116 121 122 119 113 110 147 265 265 247 114 105 106 111 113 80 65 34 347 337 351 359 313 250 266 289 303 307 306 298 284 278 282 291 304 324 324 314 306 303 305 303 299 297 296 294 293 294 295 295 296 299 302 305 308 312 316 319 321 322 320 316 313
98 98 96 92 88 84 80 76 78 82 88 91 93 89 84 75 67 61 57 60 68 87 111 125 132 136 135 133 135 168 254 265 313 56 87 101 111 110 86 79 51 322 331 328 325 312 295 287 295 302 306 308 306 295 272 268 285 306 313 309 301 294 291 293 294 295 296 296 293 289 285 283 284 286 290 296 302 308 313 318 320 322 322 320 317 314
97 98 100 100 102 104 102 97 94 95 98 101 99 98 101 102 103 104 101 93 88 88 100 123 136 142 144 146 154 176 219 242 300 44 73 99 112 115 107 145 199 237 299 303 304 303 300 298 298 300 303 305 306 305 294 290 302 311 309 302 294 288 285 284 286 290 294 297 296 292 287 284 281 280 283 295 304 310 316 320 322 322 321 318 316 313
97 98 98 102 109 112 111 104 104 107 111 107 86 83 102 111 126 142 147 136 131 123 115 121 136 149 156 155 163 178 204 218 283 50 64 91 108 116 128 167 195 213 261 293 299 301 302 304 304 303 300 294 296 302 309 316 318 314 306 300 295 291 288 287 287 288 291 294 294 293 290 287 285 284 286 297 306 314 319 321 322 321 319 316 314 311
97 96 94 93 98 103 104 99 100 106 110 107 108 108 129 124 140 153 157 146 143 144 150 157 179 199 203 188 186 189 198 202 184 65 71 92 104 115 142 192 231 243 249 269 284 293 299 302 305 306 303 293 290 294 304 311 314 311 305 301 295 291 287 288 291 293 293 293 292 292 291 289 288 288 291 300 309 318 320 320 319 318 317 314 311 309
102 101 91 78 78 83 91 93 97 105 104 105 111 124 102 86 94 116 142 143 149 156 167 173 185 202 215 218 218 216 215 214 207 190 150 129 128 136 160 196 225 238 241 251 262 272 280 287 293 298 301 300 299 299 300 303 305 307 309 308 304 298 291 294 296 295 292 291 291 292 292 291 292 294 298 306 315 322 322 317 317 317 317 314 310 307
100 92 75 61 62 71 83 91 97 100 95 77 62 47 42 35 20 9 1 46 134 161 174 170 174 199 229 231 229 226 222 217 209 197 176 163 158 160 168 187 205 223 239 254 260 262 266 272 277 281 286 291 296 299 301 303 306 311 315 316 315 314 314 309 301 293 287 285 286 289 292 294 298 302 306 313 317 320 320 318 317 316 316 313 311 309
91 80 63 48 46 54 70 86 93 83 73 66 53 41 32 26 17 7 1 2 1 1 24 43 26 4 343 314 275 245 228 220 213 205 191 184 179 178 180 191 198 206 224 251 258 258 258 264 269 273 276 281 287 291 294 299 304 309 312 311 308 306 307 304 297 290 287 286 286 289 296 304 309 313 314 316 314 312 312 312 311 310 310 306 304 305
84 82 67 41 24 8 343 347 4 35 54 64 69 82 151 133 94 52 31 11 359 358 25 48 40 21 357 337 319 297 262 235 219 210 201 194 189 188 191 197 200 206 222 245 252 253 252 257 263 269 275 282 289 292 294 296 300 303 305 302 302 302 301 297 291 285 292 294 295 298 304 309 313 315 316 316 313 310 312 310 308 308 308 305 299 294
74 79 68 348 307 308 324 351 2 18 38 47 53 210 208 163 129 103 76 40 8 1 21 57 64 55 20 340 327 322 316 295 250 221 208 200 195 194 197 201 204 210 222 241 252 256 255 257 261 268 275 283 288 290 292 296 298 298 296 296 300 304 304 302 300 299 298 297 299 302 306 308 309 310 313 314 314 313 313 310 307 305 303 300 295 289
99 102 282 287 303 329 359 359 348 355 96 129 227 252 256 146 105 96 83 58 23 12 24 51 62 62 46 355 329 323 325 329 327 295 232 216 207 201 201 203 209 215 219 233 250 264 272 271 272 274 280 284 286 287 289 292 293 293 292 291 291 290 288 295 302 306 306 304 305 305 304 308 311 315 316 315 314 313 312 309 304 299 295 290 287 285
113 75 320 322 342 1 359 301 264 234 146 165 210 244 273 57 82 86 87 67 34 21 42 62 63 55 32 355 334 330 334 338 341 341 323 256 223 210 202 205 213 220 223 230 242 261 280 286 289 289 288 284 282 281 282 285 288 289 290 289 287 282 276 284 291 298 302 306 307 307 306 315 322 324 321 318 315 312 310 307 303 299 293 290 286 285
79 46 343 342 349 344 275 257 255 24 59 24 317 276 345 66 71 76 88 81 61 52 69 80 77 68 38 353 339 339 346 343 340 338 337 338 324 242 205 206 211 219 229 244 257 270 280 286 290 292 293 287 280 275 273 278 282 286 288 289 288 287 284 284 285 289 294 301 305 309 314 324 328 326 320 316 312 309 306 303 300 297 295 293 290 288
105 85 2 338 335 323 299 302 357 49 48 16 352 35 83 73 66 57 44 41 48 59 67 73 72 66 26 336 329 339 346 335 326 322 322 332 333 326 297 258 249 258 275 283 285 284 281 277 277 279 282 283 280 277 273 274 276 279 283 286 288 288 287 287 288 290 295 301 307 314 324 331 329 322 315 312 309 306 303 300 297 292 292 293 293 293
110 111 140 332 338 333 324 342 23 46 46 36 43 60 72 80 76 66 43 33 45 63 67 65 65 46 293 280 289 313 319 312 305 301 299 306 315 320 322 321 319 312 305 296 288 281 273 265 261 260 262 267 272 276 278 275 272 271 275 280 284 287 288 291 295 299 301 305 311 319 329 330 325 318 314 309 306 303 302 301 299 296 293 293 293 294
96 108 143 102 10 2 353 11 25 35 35 37 38 40 43 61 72 73 65 47 54 75 91 100 115 185 276 284 295 302 297 292 286 282 282 293 305 315 320 325 323 316 306 296 288 279 271 264 256 249 245 246 253 263 271 272 270 269 270 276 282 288 295 300 304 308 311 314 317 321 325 320 314 309 307 303 301 300 300 301 301 300 297 295 294 295
115 120 82 357 355 10 30 31 28 25 25 35 36 31 23 41 56 65 67 52 48 57 85 112 129 176 276 279 279 278 275 271 267 267 273 291 310 320 322 322 318 313 305 300 295 291 287 284 276 264 251 243 242 245 256 265 273 278 281 281 289 299 306 309 312 316 320 319 319 318 316 310 305 300 297 296 296 297 299 300 300 301 302 303 301 299
151 177 169 178 195 29 48 47 35 17 22 65 72 63 39 49 57 62 58 43 25 19 29 77 192 232 248 253 254 253 252 249 252 259 275 302 322 328 325 320 316 312 309 309 308 308 307 307 306 299 285 270 262 251 225 245 288 313 317 310 312 316 317 314 316 318 319 316 314 311 308 304 300 296 294 294 296 298 300 301 302 304 307 310 309 305